DO7GH Weather Reports


time (UTC)temp
C
wind
direction
speed
KPH
gust
KPH
rain 1hr
cm
rain 24hr
cm
rain mn
cm
humidity
%
barometer
mb
20260507075507 11 234 3.2 9.7 0.00 0.20 0.00 80 1013.5
20260507075008 11 203 1.6 9.7 0.00 0.20 0.00 81 1013.6
20260507074522 10 182 3.2 9.7 0.00 0.20 0.00 81 1013.6
20260507074005 10 219 1.6 6.4 0.00 0.20 0.00 81 1013.6
20260507073510 10 257 0.0 3.2 0.00 0.20 0.00 83 1013.6
20260507073016 10 315 1.6 3.2 0.00 0.20 0.00 83 1013.7
20260507072508 10 231 0.0 3.2 0.00 0.20 0.00 85 1013.6
20260507072007 10 265 0.0 4.8 0.00 0.20 0.00 85 1013.5
20260507071512 10 267 0.0 4.8 0.00 0.20 0.00 85 1013.4
20260507071004 10 244 0.0 4.8 0.00 0.20 0.00 85 1013.4
20260507070505 10 287 0.0 4.8 0.00 0.20 0.00 85 1013.4
20260507070016 10 202 0.0 4.8 0.00 0.20 0.00 87 1013.4
20260507065505 9 303 0.0 4.8 0.00 0.20 0.00 86 1013.4
20260507065009 9 259 0.0 4.8 0.00 0.20 0.00 87 1013.3
20260507064523 9 279 0.0 6.4 0.00 0.20 0.00 87 1013.2
20260507064004 9 273 0.0 6.4 0.00 0.20 0.00 86 1013.2
20260507063509 9 286 0.0 4.8 0.00 0.20 0.00 86 1013.2
20260507063023 10 305 0.0 6.4 0.00 0.20 0.00 84 1013.1
20260507062508 10 241 0.0 9.7 0.00 0.20 0.00 83 1013.1
20260507062010 10 264 1.6 8.0 0.00 0.20 0.00 83 1013.0
20260507061522 10 281 1.6 8.0 0.00 0.20 0.00 85 1013.0
20260507061010 10 216 0.0 6.4 0.00 0.20 0.00 86 1013.0
20260507060507 10 273 0.0 3.2 0.00 0.20 0.00 85 1012.9
20260507060014 9 280 0.0 3.2 0.00 0.20 0.00 87 1012.9
20260507055506 9 311 0.0 4.8 0.00 0.20 0.00 87 1012.8
20260507055008 9 230 0.0 4.8 0.00 0.20 0.00 87 1012.7
20260507054516 9 222 0.0 4.8 0.00 0.20 0.00 86 1012.7
20260507054006 9 207 0.0 3.2 0.00 0.20 0.00 87 1012.6
20260507053506 9 237 0.0 3.2 0.00 0.20 0.00 86 1012.6
20260507053022 9 173 0.0 1.6 0.00 0.20 0.00 85 1012.5
20260507052506 9 148 0.0 1.6 0.00 0.20 0.00 84 1012.5
20260507052007 9 232 0.0 0.0 0.00 0.20 0.00 85 1012.5
20260507051526 9 233 0.0 0.0 0.00 0.20 0.00 85 1012.3
20260507051009 9 232 0.0 0.0 0.00 0.20 0.00 85 1012.3
20260507050509 9 232 0.0 0.0 0.00 0.20 0.00 85 1012.3
20260507050030 9 232 0.0 1.6 0.00 0.20 0.00 85 1012.2
20260507045512 9 248 0.0 1.6 0.00 0.20 0.00 85 1012.1
20260507045007 8 247 0.0 0.0 0.00 0.20 0.00 86 1012.0
20260507044517 8 248 0.0 0.0 0.00 0.20 0.00 86 1011.9
20260507044009 8 248 0.0 0.0 0.00 0.20 0.00 87 1011.8
20260507043507 8 248 0.0 0.0 0.00 0.20 0.00 87 1011.9
20260507043025 8 248 0.0 0.0 0.00 0.20 0.00 88 1011.9
20260507042509 8 248 0.0 0.0 0.00 0.20 0.00 88 1011.8
20260507042010 8 248 0.0 0.0 0.00 0.20 0.00 88 1011.7
20260507041528 8 248 0.0 0.0 0.00 0.20 0.00 87 1011.6
20260507041010 8 248 0.0 0.0 0.00 0.20 0.00 87 1011.6
20260507040510 8 248 0.0 0.0 0.00 0.20 0.00 87 1011.6
20260507040030 8 248 0.0 0.0 0.00 0.20 0.00 86 1011.6
20260507035512 8 247 0.0 0.0 0.00 0.20 0.00 87 1011.6
20260507035008 8 248 0.0 1.6 0.00 0.20 0.00 87 1011.7
20260507034523 8 248 0.0 1.6 0.00 0.20 0.00 87 1011.7
20260507034006 8 261 0.0 1.6 0.00 0.20 0.00 87 1011.6
20260507033507 8 236 0.0 1.6 0.00 0.20 0.00 87 1011.6
20260507033021 8 273 0.0 3.2 0.00 0.20 0.00 88 1011.6
20260507032509 8 273 0.0 3.2 0.00 0.20 0.00 88 1011.6
20260507032002 8 269 0.0 0.0 0.00 0.20 0.00 89 1011.7
20260507031504 8 246 0.0 0.0 0.00 0.20 0.00 89 1011.6
20260507031003 8 206 0.0 0.0 0.00 0.20 0.00 89 1011.7
20260507030503 8 203 0.0 0.0 0.00 0.20 0.00 89 1011.7
20260507030008 8 198 0.0 0.0 0.00 0.20 0.00 89 1011.7
20260507025502 8 198 0.0 0.0 0.00 0.20 0.00 89 1011.6
20260507025003 8 193 0.0 3.2 0.00 0.20 0.00 88 1011.6
20260507024513 8 193 0.0 3.2 0.00 0.20 0.00 87 1011.6
20260507024003 8 217 0.0 3.2 0.00 0.20 0.00 86 1011.5
20260507023503 8 221 0.0 3.2 0.00 0.20 0.00 86 1011.4
20260507023007 8 260 0.0 3.2 0.00 0.20 0.00 85 1011.3
20260507022503 8 243 0.0 3.2 0.00 0.20 0.00 85 1011.3
20260507022004 8 272 0.0 1.6 0.00 0.20 0.00 85 1011.4
20260507021509 8 207 0.0 3.2 0.00 0.20 0.00 84 1011.3
20260507021005 8 221 0.0 3.2 0.00 0.20 0.00 83 1011.3
20260507020503 8 242 0.0 3.2 0.00 0.20 0.00 82 1011.3
20260507020004 8 221 0.0 3.2 0.00 0.20 0.00 82 1011.2
20260507015502 8 294 0.0 6.4 0.00 0.20 0.00 82 1011.1
20260507015005 8 265 1.6 6.4 0.00 0.20 0.00 83 1011.1
20260507014508 8 255 0.0 4.8 0.00 0.20 0.00 82 1011.1
20260507014003 8 278 0.0 6.4 0.00 0.20 0.00 82 1011.0
20260507013503 8 272 0.0 9.7 0.00 0.20 0.00 81 1011.0
20260507013006 8 315 0.0 14.5 0.00 0.20 0.00 81 1011.0
20260507012503 9 292 1.6 12.9 0.00 0.20 0.00 81 1010.9
20260507012005 9 277 0.0 6.4 0.00 0.20 0.00 81 1010.9
20260507011512 9 277 1.6 8.0 0.00 0.20 0.00 81 1010.9
20260507011003 9 265 1.6 11.3 0.00 0.20 0.00 81 1010.9
20260507010503 9 303 1.6 11.3 0.00 0.20 0.00 82 1010.8
20260507010008 9 165 1.6 9.7 0.00 0.20 0.00 82 1011.0
20260507005504 9 333 1.6 9.7 0.00 0.20 0.00 82 1010.8
20260507005004 9 261 3.2 11.3 0.00 0.20 0.00 83 1010.8
20260507004509 9 283 1.6 9.7 0.00 0.20 0.00 82 1010.8
20260507004003 9 249 1.6 11.3 0.00 0.20 0.00 83 1010.7
20260507003504 9 296 3.2 14.5 0.00 0.20 0.00 82 1010.7
20260507003008 9 300 0.0 14.5 0.00 0.20 0.00 82 1010.6
20260507002503 9 294 4.8 14.5 0.00 0.20 0.00 82 1010.6
20260507002004 9 298 1.6 12.9 0.00 0.20 0.00 82 1010.6
20260507001533 9 341 1.6 9.7 0.00 0.20 0.00 82 1010.6
20260507001003 9 298 1.6 9.7 0.00 0.20 0.00 83 1010.6
20260507000505 9 338 1.6 20.9 0.00 0.20 0.00 82 1010.6
20260507000014 9 336 4.8 20.9 0.00 0.20 0.00 83 1010.8
20260506235504 9 339 0.0 11.3 0.00 0.20 0.00 84 1010.8
20260506235003 9 266 0.0 6.4 0.00 0.20 0.00 83 1010.8
20260506234510 9 173 1.6 6.4 0.00 0.20 0.00 82 1010.8
20260506234003 9 149 0.0 12.9 0.00 0.20 0.00 81 1010.7
20260506233504 9 299 3.2 12.9 0.00 0.20 0.00 81 1010.7
20260506233008 9 296 0.0 6.4 0.00 0.20 0.00 82 1010.7
20260506232502 9 269 0.0 6.4 0.00 0.20 0.00 82 1010.7
20260506232002 9 265 0.0 4.8 0.00 0.20 0.00 82 1010.8
20260506231512 9 282 0.0 6.4 0.00 0.20 0.00 82 1010.8
20260506231004 9 265 0.0 6.4 0.00 0.20 0.00 82 1010.8
20260506230507 9 244 0.0 4.8 0.00 0.20 0.00 82 1010.7
20260506230011 9 303 0.0 3.2 0.00 0.20 0.00 82 1010.7
20260506225504 9 265 0.0 12.9 0.00 0.20 0.00 82 1010.7
20260506225004 9 323 1.6 12.9 0.00 0.20 0.00 81 1010.7
20260506224515 9 258 3.2 16.1 0.00 0.20 0.00 81 1010.7
20260506224003 9 271 4.8 16.1 0.00 0.20 0.00 82 1010.7
20260506223503 9 274 1.6 9.7 0.00 0.20 0.00 82 1010.7
20260506223010 9 235 1.6 9.7 0.00 0.20 0.00 84 1010.7
20260506222505 9 265 1.6 9.7 0.00 0.20 0.00 84 1010.8
20260506222005 9 281 3.2 9.7 0.00 0.20 0.00 85 1010.7
20260506221512 9 292 1.6 8.0 0.00 0.23 0.00 85 1010.7
20260506221004 9 231 1.6 8.0 0.00 0.23 0.00 86 1010.7
20260506220504 9 320 0.0 3.2 0.00 0.23 0.00 87 1010.7
20260506220012 9 261 0.0 3.2 0.00 0.23 0.00 87 1010.6
20260506215504 9 238 0.0 3.2 0.00 0.23 0.23 86 1010.6
20260506215006 9 255 0.0 11.3 0.00 0.23 0.23 85 1010.7
20260506214513 9 287 1.6 11.3 0.00 0.23 0.23 86 1010.5
20260506214004 9 296 0.0 4.8 0.00 0.28 0.23 87 1010.4
20260506213510 9 263 0.0 4.8 0.00 0.28 0.23 87 1010.2
20260506213016 9 304 0.0 4.8 0.00 0.28 0.23 87 1010.2
20260506212505 9 287 0.0 6.4 0.00 0.28 0.23 86 1010.2
20260506212007 9 324 0.0 6.4 0.00 0.28 0.23 86 1010.3
20260506211510 9 327 0.0 6.4 0.00 0.28 0.23 86 1010.4
20260506211004 9 267 1.6 8.0 0.00 0.28 0.23 86 1010.4
20260506210508 9 259 1.6 8.0 0.00 0.28 0.23 86 1010.4
20260506210034 9 266 0.0 9.7 0.00 0.30 0.23 86 1010.4
20260506205504 9 275 0.0 9.7 0.00 0.30 0.23 85 1010.3
20260506205003 9 261 1.6 4.8 0.00 0.30 0.23 85 1010.3
20260506204516 9 277 0.0 4.8 0.00 0.30 0.23 85 1010.2
20260506204007 9 248 0.0 4.8 0.00 0.30 0.23 85 1010.2
20260506203509 9 238 0.0 9.7 0.00 0.30 0.23 85 1010.1
20260506203016 9 261 0.0 9.7 0.00 0.30 0.23 85 1010.0
20260506202504 9 180 0.0 4.8 0.00 0.30 0.23 84 1009.9
20260506202007 9 225 0.0 9.7 0.00 0.30 0.23 84 1009.8
20260506201521 9 271 1.6 9.7 0.00 0.30 0.23 83 1009.9
20260506201004 9 239 0.0 4.8 0.00 0.30 0.23 83 1009.9
20260506200504 9 230 0.0 6.4 0.00 0.30 0.23 83 1009.9
20260506200013 9 229 1.6 12.9 0.00 0.30 0.23 83 1009.9
20260506195504 9 284 0.0 12.9 0.00 0.30 0.23 83 1009.8
20260506195005 9 262 1.6 9.7 0.00 0.30 0.23 83 1009.7
20260506194517 9 236 0.0 11.3 0.00 0.30 0.23 82 1009.6
20260506194007 9 260 3.2 11.3 0.00 0.30 0.23 82 1009.5
20260506193504 10 286 3.2 11.3 0.00 0.30 0.23 83 1009.4
20260506193025 10 338 1.6 12.9 0.00 0.30 0.23 83 1009.3
20260506192504 10 315 3.2 12.9 0.00 0.30 0.23 83 1009.4
20260506192006 10 287 3.2 12.9 0.00 0.30 0.23 83 1009.4
20260506191518 10 249 3.2 11.3 0.00 0.30 0.23 83 1009.3
20260506191006 10 261 3.2 16.1 0.00 0.30 0.23 83 1009.3
20260506190507 10 286 1.6 16.1 0.00 0.30 0.23 83 1009.2
20260506190013 10 301 3.2 16.1 0.00 0.30 0.23 83 1009.2
20260506185507 10 261 3.2 12.9 0.00 0.30 0.23 83 1009.0
20260506185004 10 260 1.6 12.9 0.00 0.30 0.23 84 1008.8
20260506184511 10 308 0.0 11.3 0.00 0.30 0.23 84 1008.8
20260506184005 10 317 0.0 8.0 0.00 0.30 0.23 85 1008.6
20260506183504 10 283 0.0 14.5 0.00 0.30 0.23 85 1008.6
20260506183017 10 278 3.2 14.5 0.00 0.30 0.23 85 1008.5
20260506182508 10 261 0.0 11.3 0.00 0.30 0.23 85 1008.5
20260506182006 10 239 0.0 11.3 0.00 0.30 0.23 85 1008.4
20260506181527 10 286 1.6 6.4 0.00 0.30 0.23 85 1008.3
20260506181006 10 302 0.0 14.5 0.00 0.30 0.23 85 1008.3
20260506180504 10 292 1.6 14.5 0.00 0.30 0.23 85 1008.2
20260506180008 10 257 3.2 17.7 0.00 0.30 0.23 85 1008.1
20260506175502 10 246 3.2 17.7 0.00 0.30 0.23 84 1008.1
20260506175003 11 247 3.2 16.1 0.00 0.30 0.23 83 1008.1
20260506174512 11 311 6.4 17.7 0.00 0.30 0.23 83 1008.0
20260506174003 11 289 6.4 17.7 0.00 0.30 0.23 87 1007.9
20260506173506 11 273 1.6 11.3 0.00 0.30 0.23 89 1007.5
20260506173018 11 325 3.2 11.3 0.00 0.30 0.23 89 1007.3
20260506172504 11 267 0.0 9.7 0.00 0.30 0.23 89 1007.1
20260506172004 11 271 1.6 9.7 0.00 0.30 0.23 89 1007.0
20260506171519 11 286 0.0 3.2 0.00 0.30 0.23 89 1006.9
20260506171008 11 255 0.0 3.2 0.00 0.30 0.23 89 1006.7
20260506170507 11 244 0.0 3.2 0.00 0.30 0.23 89 1006.5
20260506170008 11 298 0.0 4.8 0.00 0.30 0.23 88 1006.3
20260506165504 11 236 0.0 4.8 0.00 0.30 0.23 88 1006.4
20260506165005 11 209 0.0 4.8 0.00 0.30 0.23 88 1006.3
20260506164532 11 241 0.0 6.4 0.00 0.30 0.23 88 1006.3
20260506164003 11 259 0.0 6.4 0.00 0.30 0.23 88 1006.2
20260506163506 11 277 1.6 6.4 0.00 0.30 0.23 88 1006.0
20260506163017 11 263 1.6 4.8 0.00 0.30 0.23 87 1006.0
20260506162508 11 263 0.0 4.8 0.00 0.30 0.23 87 1006.1
20260506162007 11 276 0.0 11.3 0.00 0.30 0.23 87 1006.0
20260506161522 11 263 0.0 12.9 0.00 0.30 0.23 87 1006.1
20260506161008 11 274 1.6 12.9 0.00 0.30 0.23 86 1006.0
20260506160507 11 327 0.0 9.7 0.00 0.30 0.23 86 1005.6
20260506160009 11 336 1.6 12.9 0.00 0.30 0.23 86 1005.5
20260506155503 11 34 1.6 12.9 0.08 0.30 0.23 86 1005.4
20260506155003 11 5 3.2 11.3 0.20 0.30 0.23 86 1005.4
20260506154514 11 86 0.0 11.3 0.20 0.30 0.23 87 1005.5
20260506154004 11 279 3.2 12.9 0.20 0.30 0.23 87 1005.5
20260506153504 11 42 1.6 12.9 0.20 0.30 0.23 87 1005.6
20260506153010 11 324 0.0 8.0 0.20 0.30 0.23 88 1006.1
20260506152503 11 25 1.6 6.4 0.20 0.30 0.23 87 1006.2
20260506152006 11 342 0.0 8.0 0.20 0.30 0.23 86 1006.2
20260506151518 11 275 0.0 24.1 0.20 0.30 0.23 86 1006.5
20260506151009 11 219 1.6 24.1 0.20 0.30 0.23 84 1006.4
20260506150507 11 278 3.2 19.3 0.20 0.30 0.23 82 1006.4
20260506150010 12 219 8.0 30.6 0.20 0.30 0.23 77 1005.6
20260506145505 15 224 11.3 30.6 0.13 0.23 0.15 64 1004.8
20260506145008 18 312 9.7 24.1 0.00 0.08 0.00 53 1004.5
20260506144524 18 254 0.0 12.9 0.00 0.08 0.00 52 1003.1
20260506144008 18 328 1.6 14.5 0.00 0.08 0.00 51 1002.4
20260506143508 19 352 3.2 14.5 0.00 0.08 0.00 51 1002.6
20260506143025 19 21 4.8 14.5 0.00 0.08 0.00 51 1002.6
20260506142505 20 56 1.6 12.9 0.00 0.08 0.00 50 1002.7
20260506142004 20 333 1.6 9.7 0.00 0.08 0.00 50 1003.2
20260506141525 20 306 1.6 8.0 0.00 0.08 0.00 51 1003.4
20260506141007 20 360 3.2 8.0 0.00 0.08 0.00 50 1003.6
20260506140503 20 5 3.2 16.1 0.00 0.08 0.00 52 1003.6
20260506140012 20 5 1.6 16.1 0.00 0.08 0.00 51 1003.6
20260506135503 20 103 1.6 16.1 0.00 0.08 0.00 50 1003.6
20260506135008 21 348 8.0 16.1 0.00 0.08 0.00 49 1003.6
20260506134520 20 360 3.2 14.5 0.00 0.08 0.00 51 1003.6
20260506134009 20 98 4.8 14.5 0.00 0.08 0.00 51 1003.7
20260506133509 20 352 3.2 11.3 0.00 0.08 0.00 53 1003.9
20260506133025 20 352 0.0 12.9 0.00 0.08 0.00 54 1003.9
20260506132506 19 352 0.0 12.9 0.00 0.08 0.00 55 1004.0
20260506132007 19 51 3.2 11.3 0.00 0.08 0.00 56 1004.1
20260506131514 18 51 1.6 8.0 0.00 0.08 0.00 56 1004.1
20260506131004 18 46 1.6 8.0 0.00 0.08 0.00 56 1004.3
20260506130508 18 76 0.0 8.0 0.00 0.08 0.00 56 1004.3
20260506130014 19 84 1.6 8.0 0.00 0.08 0.00 53 1004.3
20260506125509 20 75 1.6 16.1 0.00 0.08 0.00 53 1004.4
20260506125006 19 18 1.6 16.1 0.00 0.08 0.00 55 1004.4
20260506124523 19 62 3.2 16.1 0.00 0.08 0.00 56 1004.5
20260506124007 19 321 3.2 16.1 0.00 0.08 0.00 54 1004.7
20260506123507 19 332 0.0 12.9 0.00 0.08 0.00 56 1004.8
20260506123023 18 49 1.6 12.9 0.00 0.08 0.00 57 1004.8
20260506122508 18 57 3.2 11.3 0.00 0.08 0.00 55 1004.9
20260506122013 19 346 1.6 14.5 0.00 0.08 0.00 56 1004.8
20260506121524 19 135 3.2 14.5 0.00 0.08 0.00 55 1004.9
20260506121008 19 22 3.2 11.3 0.00 0.08 0.00 55 1004.8
20260506120506 20 298 3.2 14.5 0.00 0.08 0.00 53 1004.9
20260506120034 19 66 4.8 14.5 0.00 0.08 0.00 53 1005.0
20260506115505 19 124 3.2 14.5 0.00 0.08 0.00 54 1005.1
20260506115005 20 61 3.2 14.5 0.00 0.08 0.00 52 1005.1
20260506114520 20 13 3.2 12.9 0.00 0.08 0.00 55 1005.2
20260506114012 19 11 3.2 12.9 0.00 0.08 0.00 54 1005.3
20260506113511 19 35 3.2 12.9 0.00 0.08 0.00 55 1005.4
20260506113022 18 63 1.6 9.7 0.00 0.08 0.00 56 1005.4
20260506112506 18 80 1.6 8.0 0.00 0.08 0.00 58 1005.4
20260506112007 17 332 1.6 8.0 0.00 0.08 0.00 60 1005.4
20260506111524 17 9 1.6 9.7 0.00 0.08 0.00 60 1005.5
20260506111006 17 109 1.6 9.7 0.00 0.08 0.00 60 1005.6
20260506110507 17 59 1.6 11.3 0.00 0.08 0.00 60 1005.5
20260506110020 17 91 3.2 12.9 0.00 0.08 0.00 61 1005.6
20260506105506 17 42 0.0 14.5 0.00 0.08 0.00 62 1005.6
20260506105007 17 55 3.2 14.5 0.00 0.08 0.00 60 1005.7
20260506104531 17 55 3.2 11.3 0.00 0.08 0.00 60 1005.7
20260506104011 16 22 3.2 9.7 0.00 0.08 0.00 59 1006.0
20260506103508 16 36 0.0 6.4 0.00 0.08 0.00 59 1006.2
20260506103036 16 24 1.6 6.4 0.00 0.08 0.00 59 1006.4
20260506102511 17 47 0.0 6.4 0.00 0.08 0.00 56 1006.5
20260506102008 17 76 0.0 4.8 0.00 0.08 0.00 58 1006.6
20260506101525 17 37 0.0 6.4 0.00 0.08 0.00 56 1006.6
20260506101004 17 97 1.6 6.4 0.00 0.08 0.00 56 1006.6
20260506100506 17 42 1.6 6.4 0.00 0.08 0.00 57 1006.6
20260506100011 17 327 1.6 6.4 0.00 0.08 0.00 59 1006.5
20260506095502 17 57 0.0 6.4 0.00 0.08 0.00 58 1006.5
20260506095004 17 163 1.6 6.4 0.00 0.08 0.00 58 1006.5
20260506094510 18 122 0.0 4.8 0.00 0.08 0.00 58 1006.4
20260506094003 17 352 0.0 9.7 0.00 0.08 0.00 58 1006.4
20260506093502 17 42 1.6 8.0 0.00 0.08 0.00 57 1006.4
20260506093018 17 336 0.0 9.7 0.00 0.08 0.00 57 1006.5
20260506092503 17 85 1.6 11.3 0.00 0.08 0.00 58 1006.5
20260506092003 17 60 1.6 11.3 0.00 0.08 0.00 56 1006.6
20260506091504 18 71 1.6 4.8 0.00 0.08 0.00 56 1006.5
20260506091003 17 114 1.6 6.4 0.00 0.08 0.00 57 1006.5
20260506090502 17 74 3.2 8.0 0.00 0.08 0.00 55 1006.5
20260506090007 17 352 1.6 8.0 0.00 0.08 0.00 57 1006.4
20260506085503 17 67 0.0 9.7 0.00 0.08 0.00 55 1006.5
20260506085003 17 132 1.6 9.7 0.00 0.08 0.00 56 1006.5
20260506084509 17 28 0.0 8.0 0.00 0.08 0.00 59 1006.5
20260506084002 16 44 0.0 8.0 0.00 0.08 0.00 60 1006.6
20260506083503 16 180 0.0 12.9 0.00 0.08 0.00 60 1006.7
20260506083017 16 45 3.2 12.9 0.00 0.08 0.00 62 1006.7
20260506082506 17 53 1.6 6.4 0.00 0.08 0.00 58 1006.8
20260506082006 16 336 1.6 6.4 0.00 0.08 0.00 62 1006.7
20260506081503 16 132 1.6 8.0 0.00 0.08 0.00 60 1006.8
20260506081008 16 12 1.6 8.0 0.00 0.08 0.00 59 1006.9
20260506080504 16 25 1.6 6.4 0.00 0.08 0.00 60 1007.0